星链-4717 (STARLINK-4717 )

导读

STARLINK-4717是美国SpaceX星链星座的成员,于2022年9月5日发射升空,归属星链低轨互联网卫星星座网络。这类卫星依托近地轨道布局,为全球提供高速互联网覆盖服务,该星箭由SpaceX可复用猎鹰9火箭执行发射任务,是星链大规模组网部署过程中的一颗批量生产卫星。

Basic Information
目录编号:
53705
目录名称:
STARLINK-4717
国际标识:
2022-107F
轨道中心:
EARTH
卫星名称:
星链-4717
卫星全名:
星链-4717 (STARLINK-4717 )
卫星状态:
在轨 (已飞行1461 天)
发射日期:
2022-09-05 UTC
国别 :
美国 (US)
星等 :
--
Orbit Information
数据来源 国际轨道数据
星历时间: 2026-09-05T12:00:02+0800
6小时前
查看轨道信息
半长轴: 6863.761km
偏心率: 0.0001954
轨道倾角: 53.159°
近地点辐角 97.568°
升交点赤经 156.939°
平近点角 199.105°
近地点: 484.282km
远地点: 486.966km
周期: 94.320分钟
每日圈数: 15.267207
Detailed Information
固有亮度:
5
最大亮度:
2.5
卫星平台:
Starlink v1.5
覆盖范围:
全球
运营商:
太空探索技术公司
运营商所在国:
美国
制造商(研发单位):
太空探索技术公司
制造商所在国:
美国
使用方式:
暂无
Satellite Introduction
星链(Starlink)计划是由太空探索技术公司(SpaceX)提出的一个巨型低轨卫星互联网星座项目,计划在2019年至2024年间在太空搭建由约1.2万颗卫星组成的“星链”网络,其中1584颗将部署在地球上空550千米处的近地轨道,并从2020年开始工作。该卫星仍在工作。
2D Orbit Map
3D Orbit Map
Orbit Altitude Analysis Chart
Orbit Inclination Analysis Chart
Orbit Comprehensive Analysis Chart
View Comprehensive Chart
Conjunction Data List
Event ID Objects TCA Miss Dist (km) Collision Risk Probability Collision Risk Index (CRI) Action
CDM_260906-230205-370505-913621
2026-09-06T
23:02:27+0000
1.040 km
极远距离
2.171617E-5 中风险 0.62
CDM_260906-230205-370505-913622
2026-09-06T
23:02:27+0000
1.055 km
极远距离
2.064929E-5 中风险 0.61
CDM_260905-083805-370505-870022
2026-09-05T
08:38:45+0000
1.095 km
极远距离
1.562156E-5 中风险 0.59
CDM_260907-175005-370506-455621
2026-09-07T
17:50:00+0000
1.175 km
极远距离
1.482673E-5 中风险 0.58
CDM_260905-083805-370505-870021
2026-09-05T
08:38:45+0000
1.116 km
极远距离
1.460674E-5 中风险 0.58
CDM_260907-012305-370505-913622
2026-09-07T
01:23:57+0000
1.719 km
极远距离
4.010892E-6 低风险 0.47
CDM_260907-012305-370505-913621
2026-09-07T
01:23:57+0000
1.761 km
极远距离
3.736945E-6 低风险 0.46
CDM_260905-183705-370505-956421
2026-09-05T
18:37:46+0000
1.878 km
极远距离
2.333528E-6 低风险 0.42
CDM_260906-090905-370505-731021
2026-09-06T
09:09:01+0000
2.521 km
极远距离
1.283202E-6 低风险 0.37
CDM_260905-141805-370506-744921
2026-09-05T
14:18:58+0000
2.702 km
极远距离
1.198411E-6 低风险 0.37